Showing default

FLOCK 1C 5, 40038

Orbit data source: Space-Track

FLOCK 1C 5, 40038 is a payload satellite owned by Planet Labs (US) in LEO that was launched on Thu, 19 Jun 2014 UTC via a DNEPR launch vehicle from the Orenburg, Russia (OREN). Payloads include a variety of satellites, spacecraft, and rockets equipped with specific instruments for various scientific and technological missions. These include communications satellites like Starlink; space stations such as the ISS; scientific satellites like the Hubble; Earth observation satellites from companies like Planet Labs, Umbra, and HawkEye 360; GPS; miniature CubeSats for education and research; and military/defense satellites.

Loading next visibility...
FLOCK 1C 5 details
Identifier
40038, 2014-033AE
Orbit
LEO
Last TLE update12 hours ago
Origin
Flag of USPlanet Labs (US)
ManufacturerPlanet Labs
MissionNon-operational Commercial Imaging
Bus & MotorCUBESAT 3U, Unknown motor
Mass4.25 kg wet, 4.25 kg dry
Launch date (UTC)
2014-06-19 (10 years ago)
Launch vehicle
DNEPR
Launch site
Orenburg, Russia (OREN)
Object type
Payload
Rocket body
Debris
Shape & HBRBox + 2 Pan, 0.3 m
Radar Cross Section0.108 m², Small (<0.1 m²)

Expand to show TLE details & history

TLE from 12 hours ago
0 FLOCK 1C 5
1 40038U 14033AE  24347.87465690  .00093484  00000-0  20285-2 0  9998
2 40038  98.0853 347.9798 0006158 144.8370 215.3284 15.44021031570901
Epoch: 2024-12-12T20:59Z
Definitive object data (Epoch: 2024-12-12T20:59:30.356Z)
Latitude0.00004°
Longitude-48.94541°
Altitude440.783 km
Speed7.646 km/s
True Right ascension23h 11m 55s
True Declination0° 00' 00"
Sunlit
Object was in daylight at TLE epoch
Visualization TLE readout
Latitude-75.51212°
Longitude98.46649°
Altitude463.088 km
Speed7.633 km/s
Apparent Right ascension18h 43m 21s
Apparent Declination-72° 23' 30"
Sunlit
Object is in daylight
Visualization observer readout
Local Sidereal Time07:29:12
Azimuth173.657° S
Elevation-57.034°
Doppler factor1
Orbital elements
Apogee altitude435.414 km
Perigee altitude427.027 km
Semi-major axis6,809.358 km
Eccentricity0.0006158
Inclination98.0853°
RAAN347.9798°
Arg. of periapsis144.837°
True anomaly215.28762°
Mean anomaly215.3284°
Eccentric anomaly215.30801°
Mean motion3.86264 °/min
BSTAR0.0020285
Orbital period93.2 mins
Loading maneuver chart data...
Loading historical data...
Loading historical data...
Loading historical data...
Loading historical data...
Loading historical data...
Loading historical data...
Loading historical data...

FLOCK 1C 5 Visibility forecast

Observer location: undefined°, undefined

Span
Click to sort rows by Start time (UTC) header in descending order
Start Az.
Max El. time (UTC)
Max El. Az.
Max El.
End time (UTC)
End Az.
5 mins2024-12-13 13:06:30.956Z15.841° NNE2024-12-13 13:08:30.956Z34.148° NE42.709°2024-12-13 13:11:30.956Z190.256° SSW
4 mins2024-12-13 23:35:30.956Z105.904° ESE2024-12-13 23:36:30.956Z81.655° E20.708°2024-12-13 23:39:30.956Z16.72° NNE
|